Flag for Monaco Weather past 2 weeks in Monaco, Monaco

Now
72 °F

Passing clouds.


Feels Like: 73 °F
Forecast: 53 / 69 °F
Wind: No wind

Location: Nice Airport

Current Time: Oct 22, 2014 at 12:14:22 PM

Latest Report: Oct 22, 2014 at 11:30 AM


Visibility: N/A

Pressure: 29.86 "Hg

Humidity: 14%

Dew point: 19 °F

Location of MonacoLocation

Historic Weather in Monaco — Graph

°F

Monaco temperature yesterday

Maximum temperature yesterday: 73 °F (at 12:00 PM)
Minimum temperature yesterday: 63 °F (at 8:00 AM)
Average temperature yesterday: 69 °F

Past Weeks' High & Low Weather Summary

 TemperatureHumidityPressure
High77 °F (Oct 9, 11:30 AM)94% (Oct 13, 5:00 PM)30.27 "Hg (Oct 13, 5:00 PM)
Low61 °F (Oct 14, 12:30 AM)20% (Oct 22, 11:00 AM)29.65 "Hg (Oct 22, 12:00 AM)
Average69 °F74%29.97 "Hg
* Reported Oct 7 11:00 AM — Oct 22 11:00 AM, Monaco, Weather by CustomWeather, © 2014

Note: Actual official high and low records may vary slightly from our data, if they occured in-between our weather recording intervals... More about our weather records

Advertising

Monaco weather history for previous 24 hours

 ConditionsComfort  
Time TempWeatherWind HumidityBarometerVisibility
11:00 AM
Oct 22
70 °FPassing clouds.No wind20%29.83 "HgN/A
10:36 AM68 °FPassing clouds.3 mph24%29.83 "HgN/A
10:00 AM66 °FPassing clouds.6 mph26%29.83 "HgN/A
9:30 AM63 °FPassing clouds.7 mph49%29.80 "HgN/A
9:00 AM61 °FPassing clouds.8 mph52%29.77 "HgN/A
8:30 AM61 °FPassing clouds.7 mph36%29.77 "HgN/A
8:00 AM63 °FPassing clouds.6 mph49%29.74 "HgN/A
7:30 AM63 °FPassing clouds.6 mph37%29.74 "HgN/A
7:00 AM61 °FPassing clouds.10 mph48%29.71 "HgN/A
6:39 AM61 °FPassing clouds.9 mph45%29.71 "HgN/A
6:00 AM61 °FClear.10 mph45%29.71 "Hg10 mi
5:30 AM66 °FPassing clouds.6 mph26%29.68 "HgN/A
5:00 AM66 °FPassing clouds.5 mph30%29.65 "HgN/A
4:30 AM68 °FClear.7 mph33%29.65 "Hg10 mi
4:00 AM70 °FClear.9 mph29%29.65 "Hg10 mi
3:30 AM72 °FPassing clouds.9 mph29%29.65 "HgN/A
2:30 AM73 °FClear.24 mph29%29.65 "Hg10 mi
2:00 AM73 °FPassing clouds.21 mph33%29.65 "HgN/A
1:30 AM73 °FPassing clouds.22 mph31%29.65 "HgN/A
1:00 AM75 °FPassing clouds.21 mph31%29.65 "HgN/A
12:30 AM70 °FPassing clouds.10 mph43%29.65 "HgN/A
12:00 AM64 °FPassing clouds.6 mph78%29.65 "HgN/A
11:30 PM
Oct 21
66 °FPassing clouds.5 mph73%29.68 "HgN/A
11:00 PM64 °FPassing clouds.7 mph83%29.71 "HgN/A
10:00 PM66 °FPassing clouds.6 mph83%29.71 "HgN/A
9:30 PM66 °FPassing clouds.7 mph83%29.74 "HgN/A
9:09 PM66 °FPassing clouds.7 mph83%29.74 "HgN/A
8:30 PM70 °FPassing clouds.3 mph78%29.74 "HgN/A
8:00 PM70 °FPassing clouds.6 mph83%29.74 "HgN/A
7:30 PM70 °FPassing clouds.5 mph83%29.77 "HgN/A
7:00 PM70 °FPassing clouds.3 mph83%29.77 "HgN/A
6:30 PM72 °FScattered clouds.3 mph78%29.77 "HgN/A
6:00 PM72 °FPassing clouds.1 mph78%29.77 "HgN/A
5:30 PM72 °FPassing clouds.1 mph78%29.80 "HgN/A
5:00 PM73 °FPassing clouds.2 mph74%29.80 "HgN/A
4:30 PM73 °FScattered clouds.1 mph74%29.83 "HgN/A
4:00 PM73 °FPartly sunny.2 mph74%29.83 "HgN/A
3:30 PM73 °FPartly sunny.3 mph74%29.86 "HgN/A
3:00 PM73 °FPartly sunny.3 mph74%29.86 "HgN/A
2:30 PM72 °FPartly sunny.3 mph78%29.86 "HgN/A
2:00 PM73 °FPartly sunny.3 mph74%29.86 "HgN/A
1:30 PM73 °FPartly sunny.5 mph74%29.89 "HgN/A
1:00 PM73 °FPartly sunny.5 mph74%29.89 "HgN/A
12:30 PM73 °FPartly sunny.3 mph74%29.92 "HgN/A
12:00 PM73 °FScattered clouds.5 mph74%29.92 "HgN/A
Weather by CustomWeather, © 2014

See weather overviewHow to use our weather pages